Карточка аэропорта UNOO

Внимание!
Информация на этой странице в стадии наполнения.
Если вы не увидели какой-то информации, или заметили неточность - пожалуйста сообщите нам!
Спасибо!
Команда RU-STAFF
Название аэропортаЦентральный
Название аэропорта (англ.)Tsentralny
Превышение312 ft. (95.1 m.)
Координаты54°58.02', 73°18.6'
Высота перехода900m
Эшелон переходаQFE>=733:FL50; QFE<733:FL60;
Коды ответчика5440-5457
Зона ОрВДНовосибирск РПИ (UNNT)
Данные METARUNOO 122300Z 29001MPS CAVOK 13/11 Q1016 R25/CLRD60 NOSIG RMK QFE754
Проноз погоды (TAF)UNOO 121955Z 1221/1321 33003G08MPS 9999 SCT030 TEMPO 1221/1301 2100 MIFG BR BECMG 1311/1313 20003G08MPS SCT030CB
NOTAMshow/hide NOTAM
AWOS   TABLE

Информация о ВПП

ВПП Длина ВПП (м.) Покрытие Курс ВПП Частота ILS
072501Асфальтобетон65108.3
252501Асфальтобетон245110.1

Диспетчерские позиции

Позывной Наименование органа УВД Частота
UNOO_GNDОмск-Руление121.700
UNOO_TWRОмск-Старт119.000
UNOO_APPОмск-Подход131.200
UNOO_R_APPОмск-Круг119.050



Спутниковое изображение